Weather in Boleslawiec

Poland     51°16′29″N   15°33′46″E
temp.,
°C
wind,
m/s
gust,
m/s
humid.,
%
clouds,
%
prec.,
mm/h
press.,
hPa
HPBL,
m
15 may, sat
sat1523:00+8wsw34945 0.0 100961
02:00+7wsw239426 0.0 100947
05:00+6ssw22935 0.0 100916
08:00+12ssw12805 0.0 1009250
11:00+16wsw4565100 1.4 10081264
14:00+16wsw5662100 2.1 10071293
17:00+15s5673100 0.4 1007731
20:00+12se2284100 0.9 100532
16 may, sun
sun1623:00+10sse2286100 0.1 100518
02:00+9s228881 0.1 100528
05:00+8wsw3795100 0.4 1006174
08:00+11wsw3785100 0.5 1006721
11:00+13wsw6771100 0.4 10061273
14:00+14wsw56621 0.5 10061156
17:00+15sw46598 0.0 10051379
20:00+12ssw35800 0.3 1004105
17 may, mon
mon1723:00+9sse348695 0.0 100550
02:00+8s348879 0.1 100468
05:00+8sw3693100 0.0 1005120
08:00+11wsw4880100 0.1 1005696
11:00+10wsw3889100 0.3 1006556
14:00+12wsw4782100 1.2 1006780
17:00+12wsw588189 0.9 1006792
20:00+10w6128887 1.5 1007528
18 may, tue
tue1823:00+8wsw5139021 0.1 1008498
02:00+7wsw5139137 0.1 1008437
05:00+9wsw6128899 0.1 1008737
08:00+10wsw6118488 0.1 1009912
11:00+13w7107019 0.3 10091241
14:00+13w7975100 1.0 10101148
17:00+13w687551 0.9 10101034
20:00+11w5118992 1.9 1012519
19 may, wed
wed1923:00+8wsw5129563 0.1 1013341
02:00+8w5109773 0.4 1014387
05:00+8w5109792 0.8 1015497
08:00+9w599499 1.2 1016699
11:00+12w696522 0.7 10171544
14:00+13w575976 0.9 10161706
17:00+13w687256 0.9 10161179
20:00+10w4108711 2.2 1017401